Weather History for Big Piney, WY

Change the Weather History Date:

Tuesday, July 23, 2013

  Actual Average Record
Temperature  
Mean Temperature 66 °F 63 °F  
Max Temperature 90 °F 82 °F 94 °F (2003)
Min Temperature 41 °F 44 °F 33 °F (2001)
Degree Days  
Heating Degree Days 0 3  
Month to date heating degree days 9 91  
Since 1 June heating degree days 226 396  
Since 1 July heating degree days 9 91  
Cooling Degree Days 1 1  
Month to date cooling degree days 53 15  
Year to date cooling degree days 73 17  
Since 1 June cooling degree days 73 17  
Growing Degree Days 16 (Base 50)    
Moisture  
Dew Point 17 °F    
Average Humidity 20    
Maximum Humidity 37    
Minimum Humidity 2    
Precipitation  
Precipitation 0.00 in 0.02 in 0.27 in (1993)
Month to date precipitation 0.54 0.48  
Year to date precipitation 2.24 3.74  
Sea Level Pressure  
Sea Level Pressure 29.96 in    
Wind  
Wind Speed 7 mph (North)    
Max Wind Speed 21 mph    
Max Gust Speed 25 mph    
Visibility 10 miles    
Events      
T = Trace of Precipitation, MM = Missing Value Source: NWS Daily Summary

Daily Weather History Graph

Daily Weather History Graph

Search for Another Location

Airport:

Trip Planner

Search our weather history database for the weather conditions in past years. The results will help you decide how hot, cold, wet, or windy it might be!

Date:

Astronomy

Jul. 23, 2013 Rise Set
Actual Time 6:03 AM MDT 8:49 PM MDT
Civil Twilight 5:30 AM MDT 9:22 PM MDT
Nautical Twilight 4:49 AM MDT 10:03 PM MDT
Astronomical Twilight 4:01 AM MDT 10:51 PM MDT
Moon 9:16 PM MDT (7/23) 7:19 AM MDT (7/23)
Length of Visible Light 15h 51m
Length of Day
14h 45m
Full, 99% of the Moon is Illuminated
Jul 23
Full
Jul 29
Last Quarter
Aug 6
New
Aug 14
First Quarter
Aug 20
Full

Hourly Weather History & Observations

Time (MDT) Temp. Dew Point Humidity Pressure Visibility Wind Dir Wind Speed Gust Speed Precip Events Conditions
12:53 AM 55.0 °F 17.1 °F 23% 29.91 in 10.0 mi Calm Calm - N/A   Clear
1:53 AM 51.1 °F 12.9 °F 22% 29.91 in 10.0 mi Calm Calm - N/A   Clear
2:53 AM 50.0 °F 21.9 °F 33% 29.91 in 10.0 mi East 6.9 mph - N/A   Clear
3:53 AM 46.9 °F 19.0 °F 33% 29.93 in 10.0 mi North 4.6 mph - N/A   Clear
4:53 AM 48.0 °F 19.0 °F 32% 29.93 in 10.0 mi East 3.5 mph - N/A   Clear
5:53 AM 45.0 °F 19.0 °F 36% 29.95 in 10.0 mi Calm Calm - N/A   Clear
6:53 AM 45.0 °F 19.9 °F 37% 29.97 in 10.0 mi Calm Calm - N/A   Clear
7:53 AM 51.1 °F 23.0 °F 33% 29.98 in 10.0 mi East 3.5 mph - N/A   Clear
8:53 AM 61.0 °F 23.0 °F 23% 29.99 in 10.0 mi ENE 3.5 mph - N/A   Clear
9:53 AM 69.1 °F 30.0 °F 23% 30.00 in 10.0 mi Variable 3.5 mph - N/A   Clear
10:53 AM 73.9 °F 24.1 °F 16% 30.01 in 10.0 mi Variable 3.5 mph - N/A   Clear
11:53 AM 78.1 °F 17.1 °F 10% 29.98 in 10.0 mi Variable 3.5 mph - N/A   Clear
12:53 PM 82.0 °F 16.0 °F 8% 29.96 in 10.0 mi SW 8.1 mph - N/A   Clear
1:53 PM 86.0 °F 12.9 °F 7% 29.94 in 10.0 mi WSW 6.9 mph 16.1 mph N/A   Clear
2:53 PM 88.0 °F -7.1 °F 4% 29.94 in 10.0 mi North 15.0 mph 24.2 mph N/A   Clear
3:53 PM 87.1 °F 1.9 °F 4% 29.94 in 10.0 mi NNW 12.7 mph 23.0 mph N/A   Clear
4:53 PM 87.1 °F 1.9 °F 4% 29.93 in 10.0 mi NNW 11.5 mph 24.2 mph N/A   Clear
5:53 PM 84.9 °F 9.0 °F 6% 29.94 in 10.0 mi WNW 13.8 mph - N/A   Clear
6:02 PM 87.8 °F 12.2 °F 6% 30.23 in 10.0 mi NNW 11.5 mph - N/A   Clear
6:53 PM 84.0 °F 12.0 °F 7% 29.94 in 10.0 mi NNW 11.5 mph - N/A   Clear
7:53 PM 78.1 °F 24.1 °F 14% 29.94 in 10.0 mi NNW 12.7 mph - N/A   Clear
8:53 PM 71.1 °F 26.1 °F 19% 29.95 in 10.0 mi NNW 10.4 mph - N/A   Clear
9:53 PM 66.0 °F 26.1 °F 22% 29.96 in 10.0 mi North 9.2 mph - N/A   Clear
10:53 PM 63.0 °F 23.0 °F 22% 29.97 in 10.0 mi North 8.1 mph - N/A   Clear
11:53 PM 59.0 °F 27.0 °F 29% 29.98 in 10.0 mi ENE 3.5 mph - N/A   Clear